QPF
0.01 0.01 0.02 0.03 0.04 0.06 0.07 0.08 0.10 0.12 0.11 0.08 0.07 0.06 0.04 0.03 0.03 0.02 0.02 0.01 0.02 0.04 0.07 0.12 0.12 0.10 0.09 0.06 0.06 0.05 0.06 0.06 0.07 0.07 0.05 0.04 0.04 0.04 0.03 0.02 0.02 0.01 0.02
0.01 0.01 0.01 0.02 0.03 0.04 0.06 0.07 0.08 0.11 0.10 0.09 0.07 0.06 0.05 0.03 0.03 0.02 0.02 0.03 0.01 0.02 0.05 0.09 0.11 0.11 0.09 0.08 0.07 0.08 0.06 0.07 0.07 0.07 0.06 0.05 0.04 0.04 0.03 0.02 0.02 0.02 0.02
0.01 0.02 0.02 0.02 0.02 0.03 0.04 0.04 0.05 0.07 0.08 0.07 0.07 0.07 0.07 0.06 0.04 0.03 0.03 0.03 0.03 0.01 0.03 0.06 0.09 0.10 0.10 0.09 0.09 0.08 0.06 0.06 0.06 0.06 0.06 0.05 0.04 0.04 0.03 0.02 0.03 0.02 0.01
0.02 0.02 0.02 0.03 0.03 0.04 0.04 0.05 0.05 0.06 0.09 0.09 0.07 0.07 0.07 0.08 0.07 0.05 0.05 0.04 0.04 0.03 0.03 0.03 0.05 0.07 0.10 0.11 0.13 0.10 0.08 0.06 0.05 0.07 0.07 0.06 0.05 0.04 0.03 0.03 0.03 0.03 0.02
0.01 0.02 0.03 0.03 0.03 0.04 0.05 0.05 0.06 0.07 0.10 0.10 0.09 0.07 0.08 0.11 0.10 0.06 0.05 0.04 0.04 0.04 0.05 0.04 0.03 0.05 0.07 0.10 0.12 0.13 0.11 0.07 0.05 0.06 0.06 0.06 0.05 0.05 0.05 0.04 0.04 0.03 0.03
0.02 0.03 0.04 0.04 0.03 0.03 0.05 0.05 0.07 0.08 0.09 0.09 0.08 0.08 0.08 0.09 0.10 0.09 0.07 0.05 0.05 0.03 0.03 0.03 0.04 0.03 0.03 0.06 0.07 0.10 0.11 0.08 0.06 0.06 0.06 0.05 0.04 0.05 0.05 0.04 0.04 0.04 0.03
0.02 0.05 0.03 0.04 0.03 0.03 0.04 0.05 0.05 0.05 0.06 0.08 0.09 0.08 0.06 0.05 0.05 0.07 0.07 0.05 0.06 0.04 0.04 0.03 0.04 0.04 0.03 0.03 0.03 0.05 0.07 0.08 0.07 0.07 0.06 0.06 0.06 0.04 0.03 0.03 0.03 0.03 0.02
0.02 0.04 0.02 0.02 0.03 0.04 0.04 0.04 0.05 0.05 0.04 0.07 0.11 0.13 0.11 0.07 0.04 0.04 0.05 0.05 0.06 0.06 0.05 0.03 0.02 0.05 0.04 0.05 0.03 0.03 0.04 0.06 0.08 0.10 0.09 0.07 0.06 0.05 0.04 0.04 0.02 0.02 0.02
0.02 0.02 0.01 0.02 0.03 0.04 0.04 0.04 0.04 0.06 0.06 0.06 0.09 0.13 0.14 0.12 0.08 0.05 0.04 0.05 0.05 0.05 0.05 0.05 0.03 0.02 0.04 0.04 0.05 0.04 0.02 0.03 0.06 0.08 0.11 0.10 0.09 0.07 0.05 0.04 0.03 0.03 0.03
0.01 0.02 0.01 0.02 0.02 0.03 0.03 0.03 0.03 0.05 0.06 0.06 0.06 0.08 0.11 0.12 0.11 0.07 0.05 0.05 0.05 0.04 0.05 0.05 0.03 0.02 0.03 0.05 0.07 0.04 0.01 0.01 0.03 0.06 0.09 0.11 0.12 0.11 0.07 0.06 0.05 0.03 0.03
0.02 0.02 0.02 0.02 0.02 0.03 0.03 0.02 0.02 0.04 0.04 0.05 0.07 0.08 0.08 0.09 0.08 0.08 0.07 0.06 0.05 0.04 0.04 0.05 0.04 0.04 0.05 0.04 0.09 0.07 0.03 0.01 0.02 0.05 0.08 0.10 0.12 0.12 0.10 0.07 0.06 0.05 0.05
0.01 0.01 0.02 0.02 0.02 0.02 0.03 0.02 0.02 0.03 0.04 0.04 0.06 0.09 0.10 0.10 0.10 0.09 0.08 0.08 0.07 0.05 0.04 0.03 0.03 0.04 0.05 0.04 0.05 0.07 0.06 0.03 0.02 0.04 0.06 0.09 0.14 0.15 0.13 0.10 0.07 0.07 0.06
0.01 0.01 0.02 0.03 0.02 0.02 0.02 0.02 0.03 0.04 0.03 0.04 0.04 0.06 0.07 0.09 0.10 0.09 0.08 0.06 0.05 0.05 0.04 0.03 0.03 0.03 0.03 0.03 0.04 0.05 0.05 0.05 0.04 0.03 0.03 0.03 0.06 0.13 0.19 0.17 0.13 0.11 0.10
0.01 0.01 0.02 0.03 0.02 0.02 0.02 0.04 0.05 0.04 0.03 0.03 0.03 0.05 0.06 0.05 0.06 0.07 0.07 0.06 0.05 0.05 0.05 0.04 0.04 0.03 0.03 0.04 0.05 0.05 0.03 0.04 0.05 0.04 0.03 0.03 0.02 0.04 0.08 0.15 0.18 0.16 0.15
0.01 0.02 0.02 0.02 0.02 0.02 0.03 0.04 0.05 0.04 0.04 0.05 0.05 0.05 0.06 0.06 0.05 0.06 0.07 0.07 0.08 0.07 0.07 0.06 0.05 0.04 0.04 0.05 0.05 0.04 0.03 0.03 0.05 0.06 0.05 0.03 0.02 0.02 0.03 0.05 0.08 0.12 0.15
0.01 0.02 0.02 0.02 0.03 0.04 0.03 0.04 0.05 0.04 0.04 0.04 0.04 0.04 0.04 0.04 0.04 0.04 0.05 0.05 0.06 0.07 0.06 0.05 0.04 0.03 0.03 0.03 0.04 0.04 0.04 0.04 0.03 0.04 0.04 0.03 0.03 0.03 0.03 0.03 0.03 0.04 0.05
0.01 0.01 0.01 0.01 0.02 0.04 0.04 0.04 0.04 0.03 0.02 0.02 0.02 0.03 0.04 0.04 0.03 0.03 0.03 0.03 0.04 0.04 0.04 0.04 0.03 0.03 0.03 0.03 0.03 0.04 0.04 0.04 0.04 0.04 0.04 0.03 0.03 0.03 0.04 0.04 0.03 0.03 0.03
0.01 0.01 0.02 0.02 0.02 0.03 0.04 0.04 0.03 0.02 0.02 0.02 0.02 0.02 0.02 0.02 0.02 0.02 0.02 0.02 0.03 0.03 0.03 0.03 0.03 0.03 0.03 0.04 0.04 0.04 0.04 0.04 0.04 0.05 0.04 0.03 0.03 0.03 0.03 0.04 0.04 0.03 0.03
0.00 0.01 0.01 0.01 0.01 0.01 0.03 0.03 0.04 0.03 0.02 0.02 0.02 0.02 0.02 0.01 0.02 0.02 0.02 0.02 0.03 0.03 0.03 0.03 0.03 0.04 0.03 0.03 0.03 0.04 0.03 0.04 0.04 0.05 0.05 0.04 0.04 0.03 0.03 0.04 0.04 0.04 0.03
0.00 0.00 0.00 0.00 0.00 0.01 0.01 0.01 0.02 0.02 0.03 0.02 0.01 0.02 0.02 0.02 0.01 0.03 0.04 0.03 0.03 0.03 0.03 0.03 0.03 0.03 0.03 0.03 0.04 0.03 0.03 0.03 0.04 0.03 0.03 0.04 0.04 0.04 0.04 0.03 0.04 0.04 0.04
0.00 0.00 0.00 0.00 0.01 0.01 0.01 0.01 0.01 0.01 0.02 0.03 0.02 0.01 0.02 0.02 0.03 0.04 0.04 0.05 0.04 0.04 0.04 0.04 0.04 0.04 0.03 0.03 0.04 0.04 0.04 0.04 0.04 0.03 0.03 0.03 0.04 0.04 0.05 0.05 0.05 0.06 0.06
0.00 0.00 0.00 0.00 0.00 0.00 0.00 0.00 0.00 0.01 0.01 0.02 0.01 0.02 0.02 0.03 0.04 0.03 0.02 0.04 0.05 0.04 0.04 0.04 0.04 0.04 0.04 0.04 0.04 0.05 0.05 0.05 0.04 0.04 0.04 0.03 0.04 0.04 0.04 0.04 0.05 0.06 0.08
0.00 0.00 0.00 0.00 0.00 0.00 0.00 0.00 0.00 0.01 0.01 0.01 0.01 0.02 0.01 0.01 0.03 0.03 0.02 0.02 0.03 0.04 0.03 0.04 0.04 0.04 0.04 0.04 0.04 0.04 0.05 0.05 0.06 0.07 0.06 0.04 0.03 0.03 0.03 0.03 0.05 0.06 0.06
0.00 0.00 0.00 0.00 0.00 0.00 0.00 0.00 0.00 0.00 0.00 0.00 0.01 0.01 0.01 0.01 0.01 0.02 0.02 0.02 0.02 0.02 0.03 0.03 0.04 0.05 0.04 0.03 0.04 0.04 0.06 0.05 0.05 0.05 0.06 0.05 0.03 0.03 0.03 0.03 0.05 0.05 0.05
0.00 0.00 0.00 0.00 0.00 0.00 0.00 0.00 0.00 0.00 0.00 0.00 0.00 0.00 0.00 0.01 0.01 0.01 0.01 0.01 0.01 0.02 0.01 0.01 0.02 0.03 0.03 0.03 0.03 0.04 0.05 0.05 0.05 0.04 0.05 0.05 0.04 0.04 0.04 0.04 0.04 0.05 0.06
0.00 0.00 0.00 0.00 0.00 0.00 0.00 0.00 0.00 0.00 0.00 0.00 0.00 0.00 0.00 0.00 0.00 0.00 0.01 0.01 0.01 0.01 0.01 0.01 0.01 0.02 0.02 0.02 0.02 0.03 0.04 0.05 0.06 0.06 0.06 0.05 0.06 0.06 0.05 0.03 0.03 0.04 0.05
MSLP
1011.92 1011.63 1011.31 1011.03 1010.82 1010.71 1010.73 1010.88 1011.13 1011.44 1011.77 1012.06 1012.28 1012.41 1012.45 1012.43 1012.36 1012.28 1012.22 1012.19 1012.21 1012.27 1012.36 1012.49 1012.63 1012.79 1012.95 1013.11 1013.27 1013.42 1013.58 1013.73 1013.89 1014.05 1014.24 1014.44 1014.67 1014.91 1015.15 1015.39 1015.62 1015.83 1016.02
1012.06 1011.74 1011.41 1011.11 1010.88 1010.75 1010.73 1010.84 1011.05 1011.33 1011.63 1011.92 1012.16 1012.31 1012.38 1012.38 1012.32 1012.22 1012.12 1012.04 1012.00 1012.00 1012.06 1012.17 1012.32 1012.50 1012.70 1012.91 1013.11 1013.31 1013.49 1013.66 1013.84 1014.01 1014.21 1014.42 1014.65 1014.90 1015.15 1015.40 1015.63 1015.85 1016.04
1012.29 1011.98 1011.65 1011.35 1011.10 1010.93 1010.87 1010.91 1011.05 1011.26 1011.51 1011.76 1011.99 1012.15 1012.24 1012.26 1012.20 1012.11 1011.98 1011.86 1011.77 1011.73 1011.75 1011.84 1011.98 1012.18 1012.42 1012.67 1012.92 1013.15 1013.37 1013.57 1013.77 1013.96 1014.17 1014.39 1014.63 1014.89 1015.15 1015.41 1015.65 1015.86 1016.07
1012.58 1012.29 1011.99 1011.69 1011.43 1011.23 1011.10 1011.05 1011.09 1011.21 1011.38 1011.57 1011.76 1011.91 1012.02 1012.05 1012.02 1011.93 1011.80 1011.66 1011.54 1011.46 1011.44 1011.50 1011.64 1011.85 1012.11 1012.39 1012.68 1012.96 1013.22 1013.45 1013.67 1013.89 1014.11 1014.35 1014.60 1014.87 1015.14 1015.41 1015.66 1015.89 1016.10
1012.90 1012.64 1012.36 1012.09 1011.82 1011.58 1011.38 1011.24 1011.17 1011.17 1011.24 1011.35 1011.49 1011.63 1011.74 1011.80 1011.79 1011.72 1011.60 1011.45 1011.30 1011.19 1011.14 1011.17 1011.30 1011.50 1011.77 1012.08 1012.41 1012.73 1013.03 1013.30 1013.55 1013.80 1014.04 1014.29 1014.56 1014.84 1015.12 1015.40 1015.66 1015.90 1016.13
1013.19 1012.97 1012.74 1012.49 1012.22 1011.95 1011.69 1011.46 1011.28 1011.16 1011.12 1011.15 1011.23 1011.35 1011.46 1011.54 1011.56 1011.51 1011.40 1011.25 1011.08 1010.94 1010.85 1010.85 1010.94 1011.14 1011.41 1011.73 1012.09 1012.44 1012.79 1013.10 1013.39 1013.66 1013.93 1014.20 1014.47 1014.76 1015.05 1015.34 1015.62 1015.89 1016.14
1013.43 1013.26 1013.07 1012.85 1012.60 1012.32 1012.01 1011.70 1011.43 1011.21 1011.07 1011.02 1011.06 1011.14 1011.25 1011.34 1011.38 1011.35 1011.24 1011.08 1010.89 1010.71 1010.58 1010.53 1010.58 1010.75 1011.01 1011.34 1011.72 1012.11 1012.49 1012.84 1013.17 1013.47 1013.76 1014.04 1014.33 1014.62 1014.92 1015.22 1015.52 1015.81 1016.10
1013.61 1013.48 1013.35 1013.17 1012.95 1012.67 1012.34 1011.98 1011.64 1011.35 1011.14 1011.03 1011.01 1011.06 1011.16 1011.25 1011.29 1011.27 1011.15 1010.97 1010.74 1010.52 1010.33 1010.22 1010.23 1010.35 1010.59 1010.91 1011.30 1011.71 1012.13 1012.52 1012.88 1013.21 1013.52 1013.81 1014.10 1014.40 1014.70 1015.01 1015.33 1015.64 1015.96
1013.74 1013.65 1013.56 1013.44 1013.25 1013.00 1012.67 1012.30 1011.93 1011.59 1011.34 1011.17 1011.12 1011.14 1011.22 1011.30 1011.33 1011.29 1011.16 1010.94 1010.67 1010.38 1010.13 1009.95 1009.89 1009.96 1010.16 1010.47 1010.85 1011.27 1011.71 1012.13 1012.52 1012.87 1013.19 1013.50 1013.79 1014.08 1014.38 1014.70 1015.02 1015.36 1015.70
1013.82 1013.77 1013.73 1013.65 1013.51 1013.29 1013.00 1012.64 1012.27 1011.92 1011.64 1011.45 1011.37 1011.37 1011.42 1011.47 1011.48 1011.42 1011.25 1010.99 1010.66 1010.31 1009.99 1009.74 1009.61 1009.62 1009.76 1010.03 1010.39 1010.81 1011.25 1011.69 1012.09 1012.46 1012.80 1013.10 1013.39 1013.68 1013.97 1014.28 1014.60 1014.95 1015.31
1013.87 1013.85 1013.84 1013.81 1013.71 1013.54 1013.28 1012.96 1012.61 1012.27 1011.99 1011.79 1011.69 1011.67 1011.70 1011.73 1011.71 1011.62 1011.42 1011.11 1010.74 1010.33 1009.94 1009.62 1009.41 1009.34 1009.42 1009.64 1009.96 1010.36 1010.79 1011.22 1011.64 1012.01 1012.35 1012.65 1012.93 1013.21 1013.48 1013.78 1014.09 1014.44 1014.81
1013.89 1013.89 1013.91 1013.90 1013.84 1013.71 1013.49 1013.21 1012.89 1012.58 1012.31 1012.12 1012.01 1011.98 1011.99 1012.00 1011.96 1011.84 1011.62 1011.29 1010.88 1010.42 1009.98 1009.59 1009.31 1009.17 1009.18 1009.33 1009.59 1009.94 1010.34 1010.76 1011.16 1011.54 1011.87 1012.17 1012.44 1012.70 1012.96 1013.23 1013.53 1013.86 1014.22
1013.89 1013.89 1013.92 1013.93 1013.89 1013.78 1013.60 1013.35 1013.06 1012.78 1012.53 1012.36 1012.25 1012.21 1012.22 1012.22 1012.18 1012.05 1011.82 1011.49 1011.06 1010.59 1010.11 1009.67 1009.33 1009.12 1009.04 1009.11 1009.30 1009.59 1009.94 1010.32 1010.71 1011.06 1011.39 1011.68 1011.94 1012.18 1012.42 1012.67 1012.95 1013.25 1013.59
1013.85 1013.85 1013.87 1013.88 1013.84 1013.74 1013.58 1013.35 1013.10 1012.84 1012.62 1012.45 1012.36 1012.33 1012.33 1012.34 1012.31 1012.20 1011.99 1011.68 1011.27 1010.80 1010.31 1009.84 1009.45 1009.17 1009.02 1009.00 1009.10 1009.31 1009.60 1009.93 1010.27 1010.61 1010.92 1011.20 1011.45 1011.68 1011.90 1012.12 1012.37 1012.65 1012.96
1013.80 1013.79 1013.79 1013.78 1013.73 1013.62 1013.46 1013.25 1013.01 1012.77 1012.57 1012.42 1012.33 1012.31 1012.33 1012.35 1012.34 1012.27 1012.10 1011.83 1011.46 1011.02 1010.54 1010.07 1009.64 1009.30 1009.07 1008.96 1008.98 1009.10 1009.31 1009.58 1009.87 1010.18 1010.47 1010.73 1010.97 1011.18 1011.39 1011.60 1011.82 1012.07 1012.35
1013.72 1013.70 1013.68 1013.65 1013.58 1013.46 1013.29 1013.09 1012.86 1012.63 1012.43 1012.29 1012.21 1012.20 1012.23 1012.27 1012.29 1012.26 1012.14 1011.93 1011.61 1011.22 1010.76 1010.29 1009.85 1009.46 1009.16 1008.97 1008.90 1008.93 1009.06 1009.26 1009.50 1009.76 1010.02 1010.27 1010.50 1010.70 1010.89 1011.08 1011.28 1011.51 1011.77
1013.63 1013.60 1013.57 1013.51 1013.43 1013.30 1013.13 1012.92 1012.70 1012.47 1012.28 1012.14 1012.06 1012.05 1012.08 1012.13 1012.18 1012.18 1012.11 1011.95 1011.69 1011.34 1010.92 1010.47 1010.01 1009.59 1009.24 1008.98 1008.82 1008.77 1008.82 1008.95 1009.14 1009.35 1009.58 1009.81 1010.01 1010.20 1010.38 1010.55 1010.74 1010.95 1011.19
1013.53 1013.51 1013.47 1013.41 1013.31 1013.19 1013.02 1012.81 1012.59 1012.38 1012.18 1012.03 1011.94 1011.91 1011.93 1011.98 1012.03 1012.05 1012.01 1011.89 1011.67 1011.36 1010.98 1010.54 1010.08 1009.64 1009.25 1008.93 1008.72 1008.60 1008.58 1008.65 1008.78 1008.95 1009.14 1009.33 1009.51 1009.68 1009.83 1009.99 1010.16 1010.35 1010.58
1013.40 1013.39 1013.36 1013.31 1013.23 1013.12 1012.96 1012.78 1012.57 1012.35 1012.15 1011.99 1011.88 1011.82 1011.81 1011.84 1011.87 1011.89 1011.85 1011.75 1011.55 1011.27 1010.91 1010.49 1010.04 1009.59 1009.17 1008.83 1008.56 1008.40 1008.32 1008.34 1008.42 1008.55 1008.69 1008.85 1008.99 1009.12 1009.25 1009.38 1009.53 1009.71 1009.93
1013.21 1013.23 1013.22 1013.20 1013.15 1013.06 1012.94 1012.77 1012.58 1012.38 1012.18 1012.00 1011.86 1011.77 1011.72 1011.70 1011.70 1011.69 1011.63 1011.52 1011.34 1011.07 1010.72 1010.32 1009.88 1009.43 1009.01 1008.65 1008.36 1008.17 1008.06 1008.03 1008.07 1008.16 1008.26 1008.36 1008.46 1008.55 1008.64 1008.74 1008.86 1009.02 1009.23
1012.94 1012.99 1013.02 1013.03 1013.02 1012.97 1012.88 1012.74 1012.57 1012.38 1012.18 1011.99 1011.83 1011.70 1011.61 1011.54 1011.50 1011.45 1011.36 1011.23 1011.04 1010.77 1010.44 1010.05 1009.62 1009.19 1008.78 1008.42 1008.13 1007.92 1007.80 1007.74 1007.75 1007.79 1007.85 1007.91 1007.96 1008.00 1008.04 1008.09 1008.18 1008.31 1008.50
1012.56 1012.63 1012.70 1012.75 1012.77 1012.76 1012.71 1012.60 1012.46 1012.28 1012.09 1011.90 1011.72 1011.56 1011.44 1011.34 1011.25 1011.16 1011.05 1010.90 1010.70 1010.43 1010.10 1009.72 1009.32 1008.90 1008.51 1008.17 1007.89 1007.68 1007.55 1007.48 1007.46 1007.47 1007.49 1007.50 1007.50 1007.49 1007.48 1007.48 1007.52 1007.61 1007.77
1012.08 1012.17 1012.27 1012.34 1012.39 1012.41 1012.38 1012.30 1012.18 1012.02 1011.84 1011.65 1011.47 1011.31 1011.17 1011.06 1010.95 1010.85 1010.72 1010.56 1010.35 1010.09 1009.77 1009.40 1009.01 1008.62 1008.25 1007.92 1007.66 1007.45 1007.32 1007.24 1007.21 1007.19 1007.18 1007.16 1007.12 1007.06 1007.00 1006.96 1006.95 1006.99 1007.09
1011.53 1011.63 1011.74 1011.82 1011.88 1011.90 1011.88 1011.81 1011.70 1011.56 1011.40 1011.23 1011.07 1010.93 1010.81 1010.71 1010.62 1010.52 1010.40 1010.25 1010.05 1009.79 1009.48 1009.13 1008.76 1008.38 1008.03 1007.71 1007.45 1007.25 1007.11 1007.03 1006.98 1006.95 1006.92 1006.87 1006.81 1006.72 1006.62 1006.54 1006.48 1006.46 1006.51
1010.98 1011.09 1011.19 1011.26 1011.31 1011.32 1011.28 1011.20 1011.09 1010.96 1010.82 1010.68 1010.56 1010.46 1010.39 1010.33 1010.28 1010.21 1010.13 1010.00 1009.82 1009.58 1009.28 1008.95 1008.58 1008.21 1007.86 1007.54 1007.27 1007.07 1006.92 1006.83 1006.77 1006.73 1006.69 1006.63 1006.56 1006.46 1006.34 1006.22 1006.13 1006.06 1006.05
1010.52 1010.63 1010.72 1010.77 1010.78 1010.75 1010.68 1010.58 1010.46 1010.33 1010.21 1010.10 1010.03 1009.98 1009.97 1009.97 1009.98 1009.97 1009.93 1009.84 1009.68 1009.47 1009.19 1008.85 1008.49 1008.11 1007.74 1007.41 1007.12 1006.90 1006.73 1006.62 1006.55 1006.50 1006.46 1006.41 1006.34 1006.24 1006.12 1005.99 1005.87 1005.76 1005.69
Thickness
5700 5703 5704 5705 5708 5711 5714 5715 5719 5722 5725 5729 5732 5735 5739 5742 5744 5747 5749 5746 5745 5746 5747 5748 5749 5749 5749 5750 5750 5751 5751 5751 5752 5752 5752 5752 5752 5752 5752 5752 5752 5752 5752
5694 5696 5699 5700 5703 5706 5709 5712 5715 5717 5720 5723 5727 5731 5734 5739 5741 5744 5746 5746 5744 5745 5746 5747 5748 5748 5749 5749 5750 5750 5750 5750 5750 5751 5751 5751 5751 5751 5751 5751 5751 5751 5751
5689 5690 5693 5696 5698 5701 5704 5706 5711 5713 5715 5719 5722 5726 5730 5733 5737 5742 5744 5745 5746 5745 5745 5746 5747 5748 5748 5749 5749 5749 5749 5749 5749 5749 5749 5749 5749 5749 5749 5749 5749 5749 5749
5684 5685 5687 5690 5692 5695 5698 5700 5703 5706 5709 5713 5718 5722 5727 5729 5733 5738 5740 5743 5745 5747 5746 5746 5746 5747 5747 5747 5748 5747 5747 5747 5747 5748 5748 5748 5748 5748 5747 5747 5747 5747 5747
5680 5682 5681 5684 5688 5690 5692 5695 5698 5701 5703 5706 5712 5716 5721 5725 5729 5733 5738 5741 5744 5744 5747 5745 5744 5745 5745 5746 5746 5746 5746 5746 5746 5746 5747 5747 5746 5746 5746 5746 5746 5746 5745
5676 5677 5678 5680 5682 5684 5685 5688 5691 5694 5697 5701 5707 5712 5716 5720 5724 5728 5733 5737 5740 5743 5745 5746 5745 5745 5744 5744 5744 5745 5745 5745 5745 5745 5745 5745 5745 5745 5745 5744 5744 5744 5744
5672 5673 5674 5676 5676 5679 5680 5684 5686 5689 5693 5697 5699 5703 5710 5716 5720 5723 5728 5732 5735 5738 5741 5743 5744 5746 5745 5743 5743 5743 5743 5744 5744 5744 5744 5744 5744 5743 5743 5743 5743 5742 5742
5668 5670 5670 5671 5672 5672 5675 5678 5680 5684 5688 5692 5693 5695 5699 5705 5711 5719 5722 5725 5730 5733 5736 5740 5743 5743 5745 5745 5745 5742 5742 5742 5743 5743 5743 5743 5742 5742 5742 5742 5742 5741 5741
5665 5665 5667 5668 5668 5670 5671 5673 5676 5678 5681 5687 5691 5691 5693 5697 5705 5712 5718 5721 5723 5727 5731 5735 5739 5741 5743 5744 5745 5741 5741 5741 5741 5741 5741 5741 5741 5741 5741 5740 5740 5740 5739
5664 5663 5664 5665 5666 5667 5668 5670 5674 5675 5677 5680 5684 5689 5693 5695 5697 5701 5709 5715 5718 5721 5725 5730 5733 5736 5739 5740 5741 5741 5739 5739 5739 5739 5739 5739 5739 5739 5739 5739 5739 5739 5738
5663 5662 5662 5662 5663 5664 5665 5666 5669 5672 5674 5676 5679 5683 5686 5690 5694 5696 5698 5704 5710 5715 5720 5723 5726 5730 5733 5735 5737 5738 5737 5736 5736 5737 5737 5738 5738 5738 5738 5738 5738 5737 5737
5663 5662 5661 5661 5662 5662 5663 5664 5667 5669 5670 5673 5676 5679 5681 5683 5686 5690 5692 5696 5700 5706 5712 5717 5720 5723 5726 5729 5731 5732 5732 5733 5733 5734 5735 5736 5737 5737 5737 5737 5736 5736 5735
5662 5660 5660 5660 5660 5661 5661 5663 5664 5666 5668 5669 5672 5675 5678 5681 5684 5686 5687 5689 5691 5698 5703 5710 5714 5716 5719 5722 5725 5725 5727 5728 5729 5731 5732 5733 5734 5734 5734 5735 5735 5734 5734
5662 5660 5659 5659 5659 5659 5660 5661 5663 5664 5666 5667 5669 5671 5674 5678 5680 5682 5683 5683 5684 5689 5695 5701 5707 5710 5713 5715 5717 5718 5722 5723 5725 5726 5728 5729 5730 5731 5732 5732 5732 5732 5732
5662 5661 5660 5660 5660 5659 5659 5660 5661 5663 5664 5665 5667 5669 5671 5674 5676 5678 5679 5680 5678 5679 5684 5691 5696 5702 5705 5707 5709 5712 5716 5718 5719 5721 5723 5725 5726 5727 5728 5729 5729 5729 5729
5663 5662 5661 5661 5661 5660 5659 5659 5660 5660 5661 5662 5663 5665 5668 5671 5673 5674 5675 5675 5675 5675 5676 5683 5688 5693 5697 5700 5702 5706 5709 5711 5713 5715 5717 5719 5721 5722 5723 5724 5725 5725 5725
5664 5663 5661 5661 5660 5660 5660 5659 5659 5659 5659 5661 5662 5664 5665 5667 5668 5670 5671 5671 5671 5672 5671 5677 5682 5687 5689 5692 5696 5699 5702 5705 5709 5710 5711 5713 5715 5717 5718 5719 5721 5721 5722
5666 5664 5663 5661 5660 5659 5659 5658 5658 5658 5658 5658 5660 5661 5662 5664 5664 5665 5666 5667 5667 5668 5668 5669 5674 5678 5681 5685 5688 5691 5695 5699 5701 5703 5705 5707 5708 5710 5712 5714 5715 5716 5717
5667 5665 5664 5662 5660 5659 5659 5659 5659 5658 5658 5658 5659 5659 5660 5661 5661 5662 5662 5663 5663 5664 5664 5665 5666 5670 5674 5677 5680 5684 5688 5691 5694 5697 5698 5700 5702 5704 5706 5708 5709 5710 5712
5668 5667 5665 5663 5661 5660 5659 5659 5659 5659 5658 5658 5658 5658 5658 5659 5659 5659 5659 5659 5659 5659 5659 5660 5661 5664 5666 5670 5673 5676 5679 5684 5686 5690 5692 5694 5696 5697 5699 5702 5703 5704 5706
5669 5667 5665 5664 5662 5660 5659 5659 5659 5659 5658 5657 5657 5657 5656 5654 5653 5654 5656 5656 5656 5655 5655 5655 5656 5658 5660 5662 5665 5669 5671 5675 5679 5683 5685 5688 5691 5693 5695 5696 5697 5698 5699
5670 5668 5665 5664 5662 5660 5656 5654 5655 5657 5658 5657 5655 5655 5655 5654 5651 5650 5650 5650 5650 5651 5652 5651 5652 5652 5654 5656 5658 5661 5664 5666 5670 5677 5677 5680 5683 5685 5689 5691 5693 5692 5692
5670 5668 5666 5664 5663 5660 5655 5654 5653 5655 5657 5656 5655 5654 5653 5653 5651 5652 5650 5647 5647 5645 5645 5648 5648 5648 5649 5652 5653 5654 5657 5660 5663 5668 5668 5670 5674 5677 5682 5685 5685 5685 5686
5672 5668 5667 5665 5663 5660 5656 5654 5653 5656 5657 5656 5655 5654 5652 5651 5649 5648 5649 5649 5648 5647 5646 5646 5646 5646 5646 5647 5649 5650 5652 5655 5658 5661 5662 5663 5667 5670 5675 5678 5678 5679 5679
5672 5670 5668 5665 5663 5662 5657 5654 5653 5657 5657 5656 5654 5652 5651 5650 5644 5643 5645 5646 5646 5645 5643 5641 5640 5640 5640 5641 5643 5645 5647 5649 5652 5656 5657 5657 5661 5663 5667 5671 5673 5672 5672
5671 5669 5667 5666 5664 5663 5658 5655 5652 5657 5657 5656 5654 5652 5646 5644 5642 5640 5644 5644 5643 5643 5643 5643 5641 5640 5641 5641 5639 5641 5642 5644 5647 5649 5654 5652 5655 5656 5659 5664 5666 5666 5666